Date String (YYYY-MM-DD hh:mm:ss) UTC,Instrument flags,absolute air pressure of the measurement (hPa),sample flow rate (lpm),inlet stack bypass flow (lpm),air temperature of the measurement (°C),ambient temperature measured by the external sensor (°C),aerosol sample conditioner tube jacket temperature (°C),OPC LED temperature (°C),internal box temperature (°C),relative humidity of the measurement (%),span deviation,mass concentration of particles derived from Lorenz-Mie calculation of OPC scattering (μg/m³),mass concentration of particles derived from Lorenz-Mie calculation of OPC scattering (μg/m³),mass concentration of particles derived from Lorenz-Mie calculation of OPC scattering (μg/m³)
DateTimeUTC,F1_M11,P_M11,Q1_M11,Q2_M11,T1_M11,T2_M11,T3_M11,T4_M11,T5_M11,U1_M11,ZSPAN_M11,X0_M11,X2_M11,X1_M11
2024-04-08 13:00:00,SystemResetWarning,0824.9,4.98,000.00,018.7,018.9,000.0,027.2,021.1,012.8,0000.0,0006.49,0002.26,0001.48
2024-04-08 13:01:00,SystemResetWarning,0824.9,4.99,000.00,018.8,018.7,000.0,027.2,020.9,012.8,0000.0,0007.08,0002.36,0001.49
2024-04-08 13:02:00,SystemResetWarning,0824.8,5.00,000.00,018.8,018.5,000.0,027.1,020.6,012.8,0000.0,0007.07,0002.36,0001.51
2024-04-08 13:03:00,SystemResetWarning,0824.8,4.99,000.00,018.7,018.3,000.0,027.1,020.5,012.8,0000.0,0006.76,0002.34,0001.52
2024-04-08 13:04:00,SystemResetWarning,0824.9,5.01,000.00,018.7,018.1,000.0,027.1,020.4,011.5,0000.0,0006.33,0002.24,0001.52
2024-04-08 13:05:00,SystemResetWarning,0824.9,5.01,000.00,018.6,017.9,000.0,027.1,020.3,011.4,0000.0,0005.79,0002.27,0001.53
2024-04-08 13:06:00,SystemResetWarning,0824.9,5.01,000.00,018.6,017.8,000.0,027.1,020.2,012.0,0000.0,0006.03,0002.33,0001.55
2024-04-08 13:07:00,SystemResetWarning,0824.9,5.00,000.00,018.5,017.8,000.0,027.1,020.2,013.1,0000.0,0006.32,0002.33,0001.55
2024-04-08 13:08:00,SystemResetWarning,0824.9,4.99,000.00,018.5,017.7,000.0,027.1,020.1,013.5,0000.0,0007.86,0002.38,0001.55
2024-04-08 13:09:00,SystemResetWarning,0825.0,5.00,000.00,018.5,017.6,000.0,027.1,020.1,013.7,0000.0,0008.98,0002.34,0001.53
2024-04-08 13:10:00,SystemResetWarning,0825.0,5.01,000.00,018.4,017.6,000.0,027.1,020.1,013.9,0000.0,0009.03,0002.31,0001.52
2024-04-08 13:11:00,SystemResetWarning,0825.0,5.01,000.00,018.4,017.6,000.0,027.1,020.1,014.0,0000.0,0008.97,0002.38,0001.54
2024-04-08 13:12:00,SystemResetWarning,0825.0,5.01,000.00,018.4,017.5,000.0,027.1,020.0,013.1,0000.0,0008.88,0002.39,0001.54
2024-04-08 13:13:00,SystemResetWarning,0825.0,4.99,000.00,018.4,017.5,000.0,027.0,020.0,012.8,0000.0,0009.03,0002.43,0001.53
2024-04-08 13:14:00,SystemResetWarning,0825.1,4.99,000.00,018.4,017.5,000.0,027.0,020.0,013.6,0000.0,0009.76,0002.47,0001.54
2024-04-08 13:15:00,SystemResetWarning,0825.1,5.00,000.00,018.3,017.5,000.0,027.0,020.0,013.5,0000.0,0009.97,0002.55,0001.56
2024-04-08 13:16:00,SystemResetWarning,0825.1,5.01,000.00,018.3,017.5,000.0,027.0,020.0,013.7,0000.0,0010.62,0002.58,0001.56
2024-04-08 13:17:00,SystemResetWarning,0825.1,5.00,000.00,018.3,017.5,000.0,027.0,020.0,014.3,0000.0,0011.14,0002.56,0001.56
2024-04-08 13:18:00,SystemResetWarning,0825.0,4.99,000.00,018.3,017.5,000.0,027.0,020.0,014.4,0000.0,0011.45,0002.58,0001.57
2024-04-08 13:19:00,SystemResetWarning,0825.0,4.99,000.00,018.3,017.5,000.0,027.0,020.0,013.5,0000.0,0010.67,0002.61,0001.58
2024-04-08 13:20:00,SystemResetWarning,0825.0,5.02,000.00,018.3,017.5,000.0,027.0,020.0,014.2,0000.0,0010.77,0002.59,0001.59
2024-04-08 13:21:00,SystemResetWarning,0825.0,5.01,000.00,018.3,017.5,000.0,027.0,020.0,013.2,0000.0,0011.06,0002.66,0001.61
2024-04-08 13:22:00,SystemResetWarning,0824.9,4.99,000.00,018.3,017.4,000.0,027.0,020.0,013.2,0000.0,0011.07,0002.65,0001.61
2024-04-08 13:23:00,SystemResetWarning,0824.9,4.99,000.00,018.3,017.4,000.0,027.0,020.0,012.9,0000.0,0011.03,0002.62,0001.61
2024-04-08 13:24:00,SystemResetWarning,0824.9,5.01,000.00,018.2,017.4,000.0,027.0,020.0,012.6,0000.0,0010.93,0002.59,0001.62
2024-04-08 13:25:00,SystemResetWarning,0824.9,5.01,000.00,018.2,017.4,000.0,027.0,020.0,013.0,0000.0,0010.46,0002.59,0001.61
2024-04-08 13:26:00,SystemResetWarning,0825.0,5.00,000.00,018.2,017.4,000.0,027.0,020.0,014.0,0000.0,0010.63,0002.59,0001.61
2024-04-08 13:27:00,SystemResetWarning,0825.0,5.00,000.00,018.2,017.4,000.0,027.0,020.0,014.7,0000.0,0010.35,0002.59,0001.61
2024-04-08 13:28:00,SystemResetWarning,0824.9,5.00,000.00,018.2,017.4,000.0,027.0,020.0,014.6,0000.0,0009.56,0002.63,0001.61
2024-04-08 13:29:00,SystemResetWarning,0824.9,5.00,000.00,018.2,017.4,000.0,027.0,020.0,014.6,0000.0,0009.49,0002.70,0001.61
2024-04-08 13:30:00,SystemResetWarning,0824.9,5.00,000.00,018.2,017.3,000.0,027.0,020.0,014.5,0000.0,0009.52,0002.76,0001.63
2024-04-08 13:31:00,SystemResetWarning,0824.9,5.00,000.00,018.2,017.3,000.0,027.0,020.0,014.6,0000.0,0008.56,0002.90,0001.64
2024-04-08 13:32:00,SystemResetWarning,0824.9,5.00,000.00,018.2,017.3,000.0,027.0,020.0,013.3,0000.0,0009.00,0002.88,0001.64
2024-04-08 13:33:00,SystemResetWarning,0824.9,5.00,000.00,018.2,017.3,000.0,027.0,020.0,013.1,0000.0,0008.56,0002.84,0001.63
2024-04-08 13:34:00,SystemResetWarning,0825.0,5.00,000.00,018.2,017.3,000.0,027.0,020.0,013.2,0000.0,0009.02,0002.82,0001.62
2024-04-08 13:35:00,SystemResetWarning,0824.9,5.00,000.00,018.2,017.3,000.0,027.0,020.0,013.6,0000.0,0008.91,0002.77,0001.61
2024-04-08 13:36:00,SystemResetWarning,0824.9,4.99,000.00,018.2,017.3,000.0,027.0,020.0,013.8,0000.0,0008.82,0002.73,0001.61
2024-04-08 13:37:00,SystemResetWarning,0825.0,4.99,000.00,018.2,017.3,000.0,026.9,020.0,014.1,0000.0,0008.50,0002.71,0001.60
2024-04-08 13:38:00,SystemResetWarning,0825.0,5.00,000.00,018.2,017.6,000.0,027.0,020.2,014.1,0000.0,0008.41,0002.73,0001.60
2024-04-08 13:39:00,SystemResetWarning,0825.1,5.02,000.00,018.5,018.6,000.0,027.1,020.8,013.0,0000.0,0008.82,0002.75,0001.59
2024-04-08 13:40:00,SystemResetWarning,0825.1,4.99,000.00,018.8,019.4,000.0,027.1,021.2,013.1,0000.0,0008.90,0002.75,0001.58
2024-04-08 13:41:00,SystemResetWarning,0825.1,5.00,000.00,018.8,019.2,000.0,027.1,021.1,013.4,0000.0,0009.33,0002.77,0001.58
2024-04-08 13:42:00,SystemResetWarning,0825.1,5.02,000.00,018.8,018.9,000.0,027.1,020.9,013.6,0000.0,0009.07,0002.67,0001.56
2024-04-08 13:43:00,SystemResetWarning,0825.1,4.98,000.00,018.8,018.7,000.0,027.1,020.7,013.0,0000.0,0008.32,0002.64,0001.55
2024-04-08 13:44:00,SystemResetWarning,0825.1,5.00,000.00,018.8,018.5,000.0,027.1,020.6,012.7,0000.0,0008.40,0002.66,0001.55
2024-04-08 13:45:00,SystemResetWarning,0825.2,5.00,000.00,018.8,018.4,000.0,027.2,020.5,012.9,0000.0,0008.40,0002.68,0001.55
2024-04-08 13:46:00,SystemResetWarning,0825.3,5.01,000.00,018.7,018.2,000.0,027.2,020.5,013.0,0000.0,0008.13,0002.75,0001.56
2024-04-08 13:47:00,SystemResetWarning,0825.2,5.00,000.00,018.7,018.1,000.0,027.2,020.4,013.0,0000.0,0008.26,0002.83,0001.56
2024-04-08 13:48:00,SystemResetWarning,0825.2,4.99,000.00,018.7,018.1,000.0,027.2,020.4,012.4,0000.0,0008.35,0002.87,0001.57
2024-04-08 13:49:00,SystemResetWarning,0825.1,4.99,000.00,018.7,018.0,000.0,027.2,020.3,012.3,0000.0,0008.41,0002.92,0001.57
2024-04-08 13:50:00,SystemResetWarning,0825.3,5.00,000.00,018.6,017.9,000.0,027.2,020.3,012.9,0000.0,0008.02,0002.85,0001.57
2024-04-08 13:51:00,SystemResetWarning,0825.2,5.01,000.00,018.6,017.9,000.0,027.2,020.3,013.3,0000.0,0007.76,0002.82,0001.56
2024-04-08 13:52:00,SystemResetWarning,0825.2,5.00,000.00,018.6,017.8,000.0,027.2,020.3,013.8,0000.0,0007.11,0002.72,0001.54
2024-04-08 13:53:00,SystemResetWarning,0825.3,5.00,000.00,018.6,017.8,000.0,027.2,020.3,014.4,0000.0,0007.27,0002.74,0001.54
2024-04-08 13:54:00,SystemResetWarning,0825.3,5.01,000.00,018.6,017.8,000.0,027.2,020.3,014.8,0000.0,0007.73,0002.70,0001.55
2024-04-08 13:55:00,SystemResetWarning,0825.2,5.00,000.00,018.5,017.8,000.0,027.2,020.2,014.7,0000.0,0007.27,0002.70,0001.58
2024-04-08 13:56:00,SystemResetWarning,0825.2,5.00,000.00,018.5,017.8,000.0,027.1,020.2,014.7,0000.0,0006.81,0002.74,0001.61
2024-04-08 13:57:00,SystemResetWarning,0825.2,5.00,000.00,018.5,017.8,000.0,027.1,020.2,014.6,0000.0,0006.76,0002.76,0001.63
2024-04-08 13:58:00,SystemResetWarning,0825.2,4.99,000.00,018.5,017.8,000.0,027.1,020.2,013.6,0000.0,0006.98,0002.76,0001.66
2024-04-08 13:59:00,SystemResetWarning,0825.2,4.99,000.00,018.5,017.8,000.0,027.1,020.2,014.2,0000.0,0007.82,0002.81,0001.69
